Tracking 31027 objects as of 19-Jul-2025
HD Live streaming from Space Station
objects crossing your sky now

SL-16 DEB

Track SL-16 DEB now!
10-day predictions


NORAD ID: 24300
Int'l Code: 1996-051D
Perigee: 845.8 km
Apogee: 1,134.2 km
Inclination: 71.0 °
Period: 104.8 minutes
Semi major axis: 7360 km
RCS: 0.0855 m2 (small)
Launch date: September 4, 1996
Source: Commonwealth of Independent States (former USSR) (CIS)
Launch site: TYURATAM MISSILE AND SPACE COMPLEX (TTMTR)

Note: This is SATELLITE DEBRIS
Your satellite tracking list
MAROC TUBSAT
Track 1 satellite(s)




NASA's NSSDC Master Catalog

Two Line Element Set (TLE):
1 24300U 96051D   25199.33894804  .00000052  00000-0  86723-4 0  9992
2 24300  71.0277  46.7552 0195838 202.7394 339.2530 13.74668725447408
Source of the keplerian elements: AFSPC